Flag for Netherlands Weather past 2 weeks in Zwolle, Netherlands

Now
63 °F

Scattered showers. Scattered clouds.


Feels Like: 63 °F
Forecast: 56 / 61 °F
Wind: 22 mph from Southwest

Location: Amsterdam Schiphol Airport

Current Time: Jul 28, 2015 at 8:08:26 PM

Latest Report: Jul 28, 2015 at 7:25 PM


Visibility: N/A

Pressure: 29.65 "Hg

Humidity: 68%

Dew point: 52 °F

Location of ZwolleLocation

Historic Weather in Zwolle — Graph

°F

Zwolle temperature yesterday

Maximum temperature yesterday: 68 °F (at 5:55 PM)
Minimum temperature yesterday: 57 °F (at 12:25 AM)
Average temperature yesterday: 62 °F

Past Weeks' High & Low Weather Summary

 TemperatureHumidityPressure
High77 °F (Jul 17, 2:25 PM)100% (Jul 13, 10:25 PM)30.12 "Hg (Jul 13, 10:25 PM)
Low48 °F (Jul 26, 3:55 AM)40% (Jul 18, 5:25 PM)29.36 "Hg (Jul 25, 9:55 AM)
Average64 °F77%29.86 "Hg
* Reported Jul 13 6:25 PM — Jul 28 6:55 PM, Zwolle, Weather by CustomWeather, © 2015

Note: Actual official high and low records may vary slightly from our data, if they occured in-between our weather recording intervals... More about our weather records

Advertising

Zwolle weather history for previous 24 hours

 ConditionsComfort  
Time TempWeatherWind HumidityBarometerVisibility
6:55 PM
Tue, Jul 28
63 °FScattered clouds.16 mph68%29.65 "HgN/A
6:25 PM63 °FPassing clouds.21 mph68%29.65 "HgN/A
5:55 PM64 °FPassing clouds.25 mph64%29.65 "HgN/A
5:25 PM64 °FPassing clouds.25 mph64%29.65 "HgN/A
4:55 PM64 °FPassing clouds.26 mph60%29.65 "HgN/A
4:25 PM63 °FPassing clouds.25 mph68%29.65 "HgN/A
3:55 PM64 °FPassing clouds.25 mph64%29.65 "HgN/A
3:25 PM64 °FPassing clouds.28 mph60%29.65 "HgN/A
2:55 PM64 °FPassing clouds.22 mph68%29.65 "HgN/A
2:25 PM63 °FSprinkles. Scattered clouds.24 mph73%29.62 "HgN/A
1:55 PM61 °FSprinkles. Scattered clouds.21 mph83%29.62 "HgN/A
1:25 PM61 °FSprinkles. Scattered clouds.18 mph83%29.62 "Hg6 mi
12:55 PM61 °FBroken clouds.18 mph83%29.62 "HgN/A
12:25 PM61 °FBroken clouds.22 mph83%29.62 "HgN/A
11:55 AM63 °FScattered clouds.20 mph83%29.62 "HgN/A
11:25 AM59 °FSprinkles. Broken clouds.16 mph94%29.59 "Hg6 mi
10:55 AM59 °FSprinkles. Broken clouds.21 mph94%29.59 "Hg4 mi
10:25 AM63 °FSprinkles. Scattered clouds.16 mph88%29.59 "HgN/A
9:55 AM61 °FSprinkles. Scattered clouds.16 mph88%29.59 "Hg6 mi
9:25 AM61 °FRain showers. Scattered clouds.21 mph88%29.56 "Hg4 mi
8:55 AM61 °FScattered clouds.14 mph88%29.56 "HgN/A
8:25 AM61 °FSprinkles. Scattered clouds.13 mph88%29.56 "Hg6 mi
7:55 AM61 °FSprinkles. Scattered clouds.12 mph88%29.56 "HgN/A
7:25 AM61 °FSprinkles. Scattered clouds.13 mph88%29.56 "Hg4 mi
6:55 AM59 °FSprinkles. Scattered clouds.15 mph88%29.56 "HgN/A
6:25 AM61 °FRain showers. Passing clouds.12 mph83%29.56 "Hg4 mi
5:25 AM61 °FPassing clouds.15 mph83%29.56 "HgN/A
4:55 AM61 °FPassing clouds.15 mph83%29.56 "HgN/A
4:25 AM61 °FRain showers. Passing clouds.16 mph77%29.56 "Hg5 mi
3:55 AM61 °FPassing clouds.16 mph77%29.56 "HgN/A
3:25 AM61 °FSprinkles. Passing clouds.16 mph83%29.56 "HgN/A
2:55 AM61 °FPassing clouds.16 mph83%29.56 "HgN/A
2:25 AM59 °FPassing clouds.17 mph88%29.56 "HgN/A
1:55 AM59 °FPassing clouds.17 mph88%29.56 "HgN/A
1:25 AM59 °FPassing clouds.13 mph94%29.56 "HgN/A
12:55 AM59 °FSprinkles. Passing clouds.18 mph94%29.56 "HgN/A
12:25 AM61 °FSprinkles. Passing clouds.18 mph83%29.56 "HgN/A
11:55 PM
Mon, Jul 27
63 °FSprinkles. Passing clouds.18 mph88%29.53 "Hg5 mi
10:55 PM64 °FRain showers. Passing clouds.21 mph78%29.53 "Hg5 mi
10:25 PM64 °FPassing clouds.20 mph78%29.53 "HgN/A
9:55 PM63 °FPassing clouds.18 mph88%29.53 "HgN/A
9:25 PM63 °FPassing clouds.21 mph88%29.53 "HgN/A
8:55 PM64 °FPassing clouds.25 mph83%29.53 "HgN/A
8:25 PM63 °FSprinkles. Scattered clouds.22 mph88%29.53 "Hg4 mi
Weather by CustomWeather, © 2015

See weather overviewHow to use our weather pages